User: anonymous   Login
Location: Franzen
(48.6167°N, 15.3833°E)
Time: 12:00:04
(UTC+00:00)
Language:

Cosmos 2151 - Orbit

View from above orbital plane
View from above orbital plane
View from above satellite
View from above satellite

Ground track
Ground track

The orbit data is extracted from the following two-line orbital elements,

1 21422U 91042A   21173.81517889  .00000185  00000-0  15551-4 0  9993
2 21422  82.5008 290.2970 0015675  77.4756 282.8216 14.92265093606063
Epoch (UTC): 22 June 2021 19:33:51
Eccentricity: 0.0015675
inclination: 82.5008°
perigee height: 580 km
apogee height: 602 km
right ascension of ascending node: 290.2970°
argument of perigee: 77.4756°
revolutions per day: 14.92265093
mean anomaly at epoch: 282.8216°
orbit number at epoch: 60606

The dashed part of the orbit path shows where the satellite is in the earth's shadow,  

DLR